Date String (YYYY-MM-DD hh:mm:ss) UTC,Instrument flags,absolute air pressure of the measurement (hPa),sample flow rate (lpm),inlet stack bypass flow (lpm),air temperature of the measurement (°C),ambient temperature measured by the external sensor (°C),aerosol sample conditioner tube jacket temperature (°C),OPC LED temperature (°C),internal box temperature (°C),relative humidity of the measurement (%),span deviation,mass concentration of particles derived from Lorenz-Mie calculation of OPC scattering (μg/m³),mass concentration of particles derived from Lorenz-Mie calculation of OPC scattering (μg/m³),mass concentration of particles derived from Lorenz-Mie calculation of OPC scattering (μg/m³)
DateTimeUTC,F1_M11,P_M11,Q1_M11,Q2_M11,T1_M11,T2_M11,T3_M11,T4_M11,T5_M11,U1_M11,ZSPAN_M11,X2_M11,X0_M11,X1_M11
2023-07-15 02:00:00,SystemResetWarning,0834.3,5.00,000.00,028.8,026.3,000.0,037.2,030.4,33.1,-001.1,0006.96,0018.38,0005.49
2023-07-15 02:01:00,SystemResetWarning,0834.4,5.01,000.00,028.9,026.7,000.0,037.3,030.5,32.9,-001.9,0006.98,0018.65,0005.49
2023-07-15 02:02:00,SystemResetWarning,0834.4,5.00,000.00,028.9,027.1,000.0,037.3,030.6,32.8,-002.0,0007.02,0018.76,0005.49
2023-07-15 02:03:00,SystemResetWarning,0834.4,5.00,000.00,029.0,027.4,000.0,037.3,030.7,33.0,-002.1,0007.02,0019.09,0005.48
2023-07-15 02:04:00,SystemResetWarning,0834.4,5.01,000.00,029.0,027.7,000.0,037.3,030.8,32.9,-001.8,0006.99,0019.46,0005.46
2023-07-15 02:05:00,SystemResetWarning,0834.5,5.00,000.00,029.1,027.9,000.0,037.4,030.9,33.0,0000.0,0006.93,0018.69,0005.42
2023-07-15 02:06:00,SystemResetWarning,0835.0,5.00,000.00,029.1,028.1,000.0,037.4,030.9,32.9,0000.0,0006.91,0019.45,0005.39
2023-07-15 02:07:00,SystemResetWarning,0834.7,5.00,000.00,029.2,027.8,000.0,037.4,030.9,32.8,0000.0,0006.85,0019.53,0005.34
2023-07-15 02:08:00,SystemResetWarning,0834.7,4.99,000.00,029.1,025.9,000.0,037.3,030.6,32.9,0000.0,0006.80,0019.57,0005.29
2023-07-15 02:09:00,SystemResetWarning,0834.6,5.01,000.00,029.0,024.8,000.0,037.2,030.4,33.0,-000.6,0006.70,0019.25,0005.26
2023-07-15 02:10:00,SystemResetWarning,0834.9,5.00,000.00,028.9,024.8,000.0,037.2,030.1,33.1,0000.0,0006.63,0019.46,0005.22
2023-07-15 02:11:00,SystemResetWarning,0835.1,5.01,000.00,028.8,025.2,000.0,037.2,030.1,33.4,0000.0,0006.61,0019.80,0005.17
2023-07-15 02:12:00,SystemResetWarning,0834.7,5.00,000.00,028.8,025.7,000.0,037.2,030.2,33.5,0000.0,0006.53,0019.54,0005.13
2023-07-15 02:13:00,SystemResetWarning,0834.8,5.00,000.00,028.8,026.2,000.0,037.3,030.3,33.4,0000.0,0006.42,0020.56,0005.05
2023-07-15 02:14:00,SystemResetWarning,0835.1,4.99,000.00,028.9,026.6,000.0,037.3,030.5,33.3,0000.0,0006.37,0021.68,0004.97
2023-07-15 02:15:00,SystemResetWarning,0835.4,5.00,000.00,028.9,027.0,000.0,037.3,030.6,33.2,0000.0,0006.28,0020.75,0004.90
2023-07-15 02:16:00,SystemResetWarning,0835.2,5.00,000.00,028.9,027.3,000.0,037.3,030.7,32.8,0000.0,0006.22,0021.68,0004.84
2023-07-15 02:17:00,SystemResetWarning,0835.1,5.00,000.00,029.0,027.6,000.0,037.4,030.7,32.8,0000.0,0006.19,0021.73,0004.80
2023-07-15 02:18:00,SystemResetWarning,0834.9,5.00,000.00,029.0,027.8,000.0,037.4,030.8,33.8,0000.0,0006.11,0020.78,0004.75
2023-07-15 02:19:00,SystemResetWarning,0835.0,5.00,000.00,029.1,028.0,000.0,037.4,030.9,34.2,0000.0,0006.07,0020.52,0004.72
2023-07-15 02:20:00,SystemResetWarning,0835.0,5.00,000.00,029.2,028.2,000.0,037.4,031.0,34.6,0000.0,0006.05,0020.60,0004.68
2023-07-15 02:21:00,SystemResetWarning,0835.0,4.99,000.00,029.2,027.6,000.0,037.4,030.9,34.6,0000.0,0006.03,0021.47,0004.63
2023-07-15 02:22:00,SystemResetWarning,0835.0,5.00,000.00,029.2,025.7,000.0,037.3,030.6,34.7,0000.0,0005.99,0021.41,0004.59
2023-07-15 02:23:00,SystemResetWarning,0835.0,5.02,000.00,029.1,024.7,000.0,037.2,030.4,34.9,0000.0,0005.98,0020.59,0004.54
2023-07-15 02:24:00,SystemResetWarning,0834.9,4.98,000.00,028.9,024.7,000.0,037.2,030.1,35.0,0000.0,0005.97,0019.62,0004.51
2023-07-15 02:25:00,SystemResetWarning,0834.9,5.03,000.00,028.9,025.1,000.0,037.2,030.2,35.1,0000.0,0005.90,0018.03,0004.50
2023-07-15 02:26:00,SystemResetWarning,0835.0,4.97,000.00,029.1,025.7,000.0,037.3,030.4,34.6,0000.0,0005.81,0017.35,0004.47
2023-07-15 02:27:00,SystemResetWarning,0835.1,5.01,000.00,029.3,026.1,000.0,037.3,030.5,34.2,-000.2,0005.79,0016.76,0004.47
2023-07-15 02:28:00,SystemResetWarning,0835.2,5.01,000.00,029.4,026.6,000.0,037.4,030.6,34.0,-000.2,0005.81,0016.16,0004.47
2023-07-15 02:29:00,SystemResetWarning,0835.2,5.00,000.00,029.5,026.9,000.0,037.4,030.7,33.7,0000.0,0005.84,0016.73,0004.47
2023-07-15 02:30:00,SystemResetWarning,0835.3,5.00,000.00,029.5,027.3,000.0,037.5,030.8,33.3,-000.0,0005.90,0017.09,0004.48
2023-07-15 02:31:00,SystemResetWarning,0835.3,5.00,000.00,029.6,027.6,000.0,037.5,030.9,33.2,-000.2,0005.96,0017.78,0004.50
2023-07-15 02:32:00,SystemResetWarning,0835.2,5.00,000.00,029.6,027.8,000.0,037.6,030.9,33.2,-000.3,0006.02,0017.51,0004.52
2023-07-15 02:33:00,SystemResetWarning,0835.2,5.00,000.00,029.7,028.0,000.0,037.7,031.0,33.1,0000.0,0006.07,0018.25,0004.54
2023-07-15 02:34:00,SystemResetWarning,0835.3,5.00,000.00,029.7,028.2,000.0,037.7,031.1,32.9,0000.0,0006.06,0019.15,0004.57
2023-07-15 02:35:00,SystemResetWarning,0835.4,4.98,000.00,029.8,027.3,000.0,037.7,031.0,32.9,0000.0,0006.13,0019.26,0004.59
2023-07-15 02:36:00,SystemResetWarning,0835.3,5.01,000.00,029.7,025.8,000.0,037.6,030.8,32.9,0000.0,0006.18,0019.34,0004.60
2023-07-15 02:37:00,SystemResetWarning,0835.3,5.01,000.00,029.7,025.4,000.0,037.6,030.5,32.7,0000.0,0006.24,0019.68,0004.63
2023-07-15 02:38:00,SystemResetWarning,0835.3,5.01,000.00,029.5,025.7,000.0,037.6,030.4,32.8,0000.0,0006.28,0020.05,0004.63
2023-07-15 02:39:00,SystemResetWarning,0835.4,4.98,000.00,029.5,026.1,000.0,037.7,030.5,32.5,-000.0,0006.30,0020.76,0004.62
2023-07-15 02:40:00,SystemResetWarning,0835.5,5.00,000.00,029.5,026.5,000.0,037.7,030.6,32.4,-000.0,0006.31,0020.94,0004.61
2023-07-15 02:41:00,SystemResetWarning,0835.5,5.00,000.00,029.5,026.9,000.0,037.8,030.7,32.2,0000.0,0006.26,0020.98,0004.60
2023-07-15 02:42:00,SystemResetWarning,0835.5,5.01,000.00,029.6,027.2,000.0,037.8,030.8,32.2,0000.0,0006.23,0020.87,0004.59
2023-07-15 02:43:00,SystemResetWarning,0835.6,5.00,000.00,029.6,027.6,000.0,037.8,030.9,32.1,0000.6,0006.21,0021.10,0004.56
2023-07-15 02:44:00,SystemResetWarning,0835.6,5.00,000.00,029.6,027.8,000.0,037.8,031.0,32.1,0000.5,0006.18,0020.50,0004.53
2023-07-15 02:45:00,SystemResetWarning,0835.5,5.00,000.00,029.7,028.0,000.0,037.9,031.1,31.8,0000.5,0006.17,0019.51,0004.51
2023-07-15 02:46:00,SystemResetWarning,0835.6,4.98,000.00,029.7,027.5,000.0,037.8,031.0,31.6,0000.4,0006.09,0019.01,0004.48
2023-07-15 02:47:00,SystemResetWarning,0835.6,5.01,000.00,029.6,025.9,000.0,037.7,030.8,31.6,-000.2,0006.12,0019.52,0004.47
2023-07-15 02:48:00,SystemResetWarning,0835.5,5.01,000.00,029.5,025.4,000.0,037.7,030.6,31.6,-000.1,0006.19,0020.53,0004.46
2023-07-15 02:49:00,SystemResetWarning,0835.6,5.01,000.00,029.4,025.6,000.0,037.7,030.5,31.8,-000.8,0006.16,0019.91,0004.46
2023-07-15 02:50:00,SystemResetWarning,0835.6,4.99,000.00,029.4,026.0,000.0,037.7,030.5,31.9,-000.8,0006.17,0019.23,0004.45
2023-07-15 02:51:00,SystemResetWarning,0835.6,4.99,000.00,029.4,026.4,000.0,037.8,030.6,31.7,-000.6,0006.14,0018.15,0004.44
2023-07-15 02:52:00,SystemResetWarning,0835.7,4.99,000.00,029.4,026.8,000.0,037.8,030.7,31.9,-001.2,0006.08,0017.84,0004.44
2023-07-15 02:53:00,SystemResetWarning,0835.8,5.00,000.00,029.4,027.1,000.0,037.8,030.8,31.9,-001.5,0005.99,0017.04,0004.42
2023-07-15 02:54:00,SystemResetWarning,0835.8,5.01,000.00,029.5,027.4,000.0,037.8,030.9,31.9,-001.0,0005.92,0016.79,0004.42
2023-07-15 02:55:00,SystemResetWarning,0835.8,5.00,000.00,029.5,027.7,000.0,037.8,031.0,31.9,-001.1,0005.89,0016.55,0004.42
2023-07-15 02:56:00,SystemResetWarning,0835.8,4.99,000.00,029.5,027.9,000.0,037.8,031.0,31.9,-001.2,0005.86,0016.96,0004.42
2023-07-15 02:57:00,SystemResetWarning,0835.9,4.99,000.00,029.6,027.7,000.0,037.8,031.0,32.0,-001.1,0005.86,0017.59,0004.42
2023-07-15 02:58:00,SystemResetWarning,0835.9,5.00,000.00,029.5,026.1,000.0,037.7,030.8,32.3,-000.8,0005.81,0017.76,0004.42
2023-07-15 02:59:00,SystemResetWarning,0835.9,5.00,000.00,029.5,025.3,000.0,037.6,030.6,33.4,0000.0,0005.74,0015.91,0004.42
